Weather Roundup
Issued by NWS Chicago, IL

Home | Current Version | Previous Version | Graphics & Text | Print | Product List | Glossary On
Versions: 1 2 3 4 5 6 7 8 9 10 11 12 13 14 15 16 17 18 19 20 21 22 23 24 25 26 27 28 29 30 31 32 33 34 35 36 37 38 39 40 41 42 43 44 45 46 47 48 49 50
000
NZUS59 KLOT 191303
HRRLOT

CHICAGO AREA WEATHER ROUNDUP
NATIONAL WEATHER SERVICE CHICAGO/ROMEOVILLE IL
700 AM CST SUN FEB 19 2017

NOTE: "FAIR" INDICATES FEW OR NO CLOUDS BELOW 12,000 FEET WITH NO
SIGNIFICANT WEATHER AND/OR OBSTRUCTIONS TO VISIBILITY.

* THESE STATIONS ARE NOT UNDER NWS QUALITY CONTROL. THEY ALSO MAY NOT
  REPORT WEATHER SUCH AS PRECIPITATION OR FOG.

ILZ005-006-012>014-019>023-191400-
NORTHEAST ILLINOIS

CITY           SKY/WX    TMP DP  RH WIND       PRES   REMARKS
OHARE          PTCLDY    40  34  79 W3        30.00R
MIDWAY         PTCLDY    39  33  79 CALM      30.01R
AURORA         CLEAR     31  28  89 CALM      30.00R FOG
LANSING*       CLEAR     31  31 100 CALM      30.01R
JOLIET*        CLEAR     32  31  97 CALM      30.01R
WAUKEGAN       CLEAR     31  27  85 CALM      29.99R
DUPAGE AIRPORT CLEAR     30  26  85 NE3       29.99R
WHEELING       CLEAR     31  29  92 CALM      30.02R
KANKAKEE*      CLEAR     31  31  97 CALM      30.02R FOG
MORRIS*        CLEAR     34  32  92 CALM      30.00R
LEWIS AIRPORT* CLEAR     36  36 100 CALM      30.01R
NORTHERLY ISL    N/A     46  37  71 SW7         N/A
$$

WIZ051-052-058>065-066-070>072-191400-
SOUTHEAST WISCONSIN

CITY           SKY/WX    TMP DP  RH WIND       PRES   REMARKS
MILWAUKEE      PTCLDY    43  30  60 W6        29.98R
KENOSHA*       CLEAR     32  27  81 NW5       29.99R WCI  27
RACINE*        CLEAR     41  30  65 NW7       30.00R
WAUKESHA       CLEAR     34  28  80 CALM      29.99R
$$

INZ001>003-010>013-019-020-191400-
NORTHWEST INDIANA

CITY           SKY/WX    TMP DP  RH WIND       PRES   REMARKS
GARY*          CLEAR     32  30  93 CALM      30.01R
MICHIGAN CITY* NOT AVBL
RENSSELAER*    NOT AVBL
VALPARAISO     CLEAR     36  36 100 W3        30.01R FOG
$$

LMZ740>746-191400-
SOUTHERN LAKE MICHIGAN

STATION/POSITION TIME  SKY/WX   TEMP WIND        PRES    VSBY
                                AIR  DIR/SP/G
                 (UTC)          (F)  (DEG/KT/KT) (MB)    (MI)
HARRISON CRIB    1240            51  280/  7/  7   N/A
BURNHAM HARBOR   1300            47  260/  6/  6   N/A
CALUMET HARBOR   1230            42  220/  3/  3 1015.1R
BURNS HARBOR     1240            43  210/  3/  4 1016.3R
MICHIGAN CITY    1240            42  190/  5/  6   N/A
$$

ABBREVIATIONS USED IN REMARKS
   TC - TEMPERATURE IN CELSIUS
  WCI - WIND CHILL INDEX
   HX - HEAT INDEX
  VSB - VISIBILITY
$$




USA.gov is the U.S. government's official web portal to all federal, state and local government web resources and services.